Location: DarkSkies Observatory
(42.5924°N, 71.9747°W)
Time: 04:04:43
(UTC-05:00)

Tiangong 1 - Visible Passes

Search period start: 21 January 2018 00:00
Search period end: 31 January 2018 00:00
Orbit: 262 x 287 km, 42.8° (Epoch: 21 January)

Date Brightness Start Highest point End Pass type
(mag) Time Alt. Az. Time Alt. Az. Time Alt. Az.
21 Jan 0.9 17:58:10 10° W 18:00:37 55° SSW 18:01:44 26° SE visible
22 Jan 1.7 17:57:32 10° W 17:59:52 36° SSW 18:01:27 16° SE visible
23 Jan 2.6 17:56:51 10° W 17:58:56 23° SSW 18:00:59 10° SSE visible
24 Jan 3.4 17:56:15 10° WSW 17:57:47 15° SSW 17:59:19 10° S visible
